User: anonymous   Login
Location: Unspecified
(0.0000°N, 0.0000°E)
Time: 03:52:43
(UTC+00:00)
Language:

GONETS M04 - Orbit

View from above orbital plane
View from above orbital plane
View from above satellite
View from above satellite

Ground track
Ground track

The orbit data is extracted from the following two-line orbital elements,

1 38736U 12041D   18321.69002912 +.00000026 +00000-0 +11304-3 0  9999
2 38736 082.4817 000.3986 0023979 342.2730 017.7514 12.43805402286196
Epoch (UTC): 17 November 2018 16:33:38
Eccentricity: 0.0023979
inclination: 82.4817°
perigee height: 1471 km
apogee height: 1509 km
right ascension of ascending node: 0.3986°
argument of perigee: 342.2730°
revolutions per day: 12.43805402
mean anomaly at epoch: 17.7514°
orbit number at epoch: 28619

The dashed part of the orbit path shows where the satellite is in the earth's shadow,  

DLR